User: anonymous   Login
Location: Unspecified
(0.0000°N, 0.0000°E)
Time: 19:07:44
(UTC+00:00)
Language:

STARLINK-32127 - Orbit

View from above orbital plane
View from above orbital plane
View from above satellite
View from above satellite

Ground track
Ground track

The orbit is defined by the following mean orbital elements,

1 60146U          26145.51893593 +.00000000 +00000-0 +20656-4 0 00004
2 60146  53.1614 322.7369 0001109  92.5748 267.5380 15.30196610    00
Epoch (UTC): 25 May 2026 12:27:16
Eccentricity: 0.0001109
inclination: 53.1614°
perigee height: 474 km
apogee height: 476 km
right ascension of ascending node: 322.7369°
argument of perigee: 92.5748°
revolutions per day: 15.30196610
mean anomaly at epoch: 267.5380°

The dashed part of the orbit path shows where the satellite is in the earth's shadow,  

DLR